Nashville, TN

1:07 PM CDT on July 28, 2017 (GMT -0500)
Nashville International

Weather History for KBNA - December, 2013

Change the Weather History Date:

Tuesday, December 10, 2013

  Actual Average Record
Temperature  
Mean Temperature 34 °F 42 °F  
Max Temperature 42 °F 51 °F 74 °F (1971)
Min Temperature 26 °F 32 °F 1 °F (1917)
Degree Days  
Heating Degree Days 31    
Month to date heating degree days 209  
Since 1 July heating degree days 943  
Cooling Degree Days 0    
Month to date cooling degree days 2  
Year to date cooling degree days 1733  
Moisture  
Dew Point 23 °F    
Average Humidity 65    
Maximum Humidity 85    
Minimum Humidity 44    
Precipitation  
Precipitation 0.06 in 0.16 in 2.07 in (1879)
Month to date precipitation 5.10 1.55  
Year to date precipitation 52.00 44.56  
Snow  
Snow 0.40 in - 1.00 in (1944)
Month to date snowfall 0.4  
Since 1 July snowfall 0.9  
Snow Depth 0.00 in    
Sea Level Pressure  
Sea Level Pressure 30.29 in    
Wind  
Wind Speed 5 mph (NNW)    
Max Wind Speed 16 mph    
Max Gust Speed 22 mph    
Visibility 8 miles    
Events Snow    
T = Trace of Precipitation, MM = Missing Value Source: NWS Daily Summary

Daily Weather History Graph

Daily Weather History Graph

Search for Another Location

Airport or City:

Trip Planner

Search our weather history database for the weather conditions in past years. The results will help you decide how hot, cold, wet, or windy it might be!

Date:

Astronomy

Dec. 10, 2013 Rise Set
Actual Time 6:46 AM CST 4:32 PM CST
Civil Twilight 6:18 AM CST 5:00 PM CST
Nautical Twilight 5:46 AM CST 5:32 PM CST
Astronomical Twilight 5:15 AM CST 6:04 PM CST
Moon 12:24 PM CST (12/10) 12:15 AM CST (12/10)
Length of Visible Light 10h 42m
Length of Day
9h 45m
Waxing Gibbous, 62% of the Moon is Illuminated
Dec 10
Waxing Gibbous
Dec 17
Full
Dec 25
Last Quarter
Jan 1
New
Jan 7
First Quarter

Hourly Weather History & Observations

Time (CST) Temp. Windchill Dew Point Humidity Pressure Visibility Wind Dir Wind Speed Gust Speed Precip Events Conditions
12:26 AM 30.2 °F 19.3 °F 24.8 °F 80% 30.16 in 9.0 mi North 15.0 mph - 0.00 in Snow Light Ice Pellets
12:51 AM 30.2 °F 21.9 °F 24.8 °F 80% 30.17 in 1.8 mi North 9.2 mph - 0.01 in Snow Light Snow
12:53 AM 30.0 °F 22.4 °F 25.0 °F 82% 30.19 in 1.5 mi North 8.1 mph - 0.01 in Snow Light Snow
1:00 AM 28.4 °F 19.1 °F 24.8 °F 86% 30.16 in 1.2 mi North 10.4 mph - 0.00 in Snow Light Snow
1:07 AM 28.4 °F 19.7 °F 26.6 °F 93% 30.16 in 2.0 mi North 9.2 mph - 0.00 in Snow Light Snow
1:12 AM 28.4 °F 19.1 °F 26.6 °F 93% 30.16 in 3.0 mi North 10.4 mph - 0.01 in Snow Light Snow
1:23 AM 28.4 °F 18.5 °F 24.8 °F 86% 30.16 in 4.0 mi North 11.5 mph - 0.01 in Snow Light Snow
1:30 AM 28.4 °F 19.1 °F 24.8 °F 86% 30.19 in 4.0 mi NNW 10.4 mph - 0.01 in Snow Light Snow
1:46 AM 28.4 °F 20.4 °F 24.8 °F 86% 30.16 in 3.0 mi North 8.1 mph - 0.02 in Snow Light Snow
1:53 AM 28.0 °F 20.0 °F 25.0 °F 88% 30.17 in 2.0 mi North 8.1 mph - 0.03 in Snow Light Snow
2:07 AM 28.4 °F 20.4 °F 24.8 °F 86% 30.16 in 4.0 mi North 8.1 mph - 0.01 in Snow Light Snow
2:49 AM 28.4 °F 20.4 °F 24.8 °F 86% 30.15 in 2.5 mi North 8.1 mph - 0.02 in Snow Light Snow
2:53 AM 28.0 °F 19.3 °F 25.0 °F 88% 30.17 in 3.0 mi North 9.2 mph - 0.02 in Snow Light Snow
3:53 AM 28.0 °F 20.8 °F 24.1 °F 85% 30.19 in 10.0 mi NW 6.9 mph - 0.00 in   Overcast
4:20 AM 28.4 °F 22.2 °F 23.0 °F 80% 30.17 in 10.0 mi NNW 5.8 mph - N/A   Overcast
4:53 AM 28.0 °F 20.0 °F 21.9 °F 78% 30.19 in 10.0 mi NNW 8.1 mph - N/A   Overcast
5:53 AM 28.0 °F 19.3 °F 21.0 °F 75% 30.25 in 10.0 mi NW 9.2 mph - N/A   Overcast
6:53 AM 27.0 °F 17.3 °F 19.9 °F 75% 30.32 in 10.0 mi NW 10.4 mph 20.7 mph N/A   Overcast
7:21 AM 26.6 °F 16.8 °F 19.4 °F 74% 30.33 in 10.0 mi NW 10.4 mph - N/A   Mostly Cloudy
7:53 AM 27.0 °F 17.3 °F 19.0 °F 72% 30.36 in 10.0 mi NNW 10.4 mph - N/A   Scattered Clouds
8:53 AM 28.9 °F 21.1 °F 18.0 °F 64% 30.38 in 10.0 mi NNW 8.1 mph - N/A   Partly Cloudy
9:53 AM 32.0 °F 28.7 °F 19.0 °F 59% 30.39 in 10.0 mi NNW 3.5 mph - N/A   Clear
10:53 AM 34.0 °F 28.0 °F 21.0 °F 59% 30.39 in 10.0 mi NW 6.9 mph - N/A   Clear
11:53 AM 35.1 °F 31.0 °F 21.9 °F 59% 30.38 in 10.0 mi West 4.6 mph - N/A   Clear
12:53 PM 37.0 °F 33.3 °F 23.0 °F 57% 30.36 in 10.0 mi WNW 4.6 mph - N/A   Clear
1:53 PM 39.9 °F 35.1 °F 21.9 °F 49% 30.35 in 10.0 mi NW 6.9 mph - N/A   Clear
2:53 PM 41.0 °F 36.4 °F 21.0 °F 45% 30.35 in 10.0 mi Variable 6.9 mph - N/A   Clear
3:53 PM 39.9 °F 36.7 °F 19.9 °F 45% 30.37 in 10.0 mi West 4.6 mph - N/A   Clear
4:53 PM 37.0 °F 33.3 °F 19.0 °F 48% 30.38 in 10.0 mi Variable 4.6 mph - N/A   Clear
5:53 PM 35.1 °F - 19.9 °F 54% 30.38 in 10.0 mi Calm Calm - N/A   Clear
6:53 PM 32.0 °F - 23.0 °F 69% 30.38 in 10.0 mi Calm Calm - N/A   Clear
7:53 PM 30.0 °F - 23.0 °F 75% 30.38 in 10.0 mi Calm Calm - N/A   Clear
8:53 PM 28.9 °F - 23.0 °F 78% 30.38 in 10.0 mi Calm Calm - N/A   Clear
9:53 PM 28.0 °F - 23.0 °F 81% 30.39 in 10.0 mi Calm Calm - N/A   Clear
10:53 PM 26.1 °F 20.5 °F 23.0 °F 88% 30.40 in 10.0 mi South 4.6 mph - N/A   Clear
11:53 PM 26.1 °F - 23.0 °F 88% 30.43 in 10.0 mi Calm Calm - N/A   Clear